COSMOS 2251 DEB, 33841

Orbit data source: Space-Track

COSMOS 2251 DEB, 33841 is space debris in LEO originally from a launch on Wed, 16 Jun 1993 UTC launched from the Plesetsk Missile And Space Complex (PKMTR). The debris from Iridium 33, an American commercial communications satellite, has been tracked extensively since its accidental collision with the defunct Russian satellite Cosmos 2251 in 2009. This event, occurring at high speed in low Earth orbit (LEO), generated thousands of pieces of space debris, significantly increasing the risk of further collisions. The Iridium 33 debris cloud has impacted space traffic management and orbital debris mitigation strategies, making it a subject of ongoing study in space situational awareness.

Loading next visibility...
Identifier
33841, 1993-036CJ
Orbit
LEO
Country
Flag of CISCIS
Related business
Manufacturer
Unknown
Mission
Spacecraft
Bus & Motor
Unknown
Mass
Unknown
Launch date (UTC)
1993-06-16 (33 years ago)
Launch vehicle
Unknown
Launch site
Plesetsk Missile And Space Complex (PKMTR)
Object type
Payload
Rocket body
Debris
Shape & HBR
Unknown shape, 0.1 m
Radar Cross Section
Medium (>0.1 m² and <1 m²)

Expand to show TLE details & history
Last TLE update: 18 hours ago

TLE from 18 hours ago
0 COSMOS 2251 DEB
1 33841U 93036CJ  26257.38661686  .00000308  00000-0  11005-3 0  9997
2 33841  74.0369 130.3886 0020379 149.9366  25.1872 14.38164089920761
Epoch: 2026-09-14T09:16Z
TLE epoch observation values (Epoch: 2026-09-14T09:16:43.696Z)
Latitude
4.50897°
Longitude
176.55322°
Altitude
753.543 km
Speed
7.485 km/s
True Right ascension
20h 36m 24s
True Declination
4° 28' 56"
Sunlit
Object was in full shadow at epoch
Visualization orbit readout
Latitude
Unknown
Longitude
Unknown
Altitude
Unknown
Speed
Unknown
Apparent Right ascension
Unknown
Apparent Declination
Unknown
Sunlit
N/A
Visualization observer readout
Local Sidereal Time
19:29:34
Azimuth
Unknown
Elevation
Unknown
Doppler factor
Unknown
Orbital elements
Apogee altitude
776.744 km
Perigee altitude
747.641 km
Semi-major axis
7,140.329 km
Eccentricity
0.00204
Inclination
74.0369°
RAAN
130.3886°
Arg. of periapsis
149.9366°
True anomaly
25.28681°
Mean anomaly
25.1872°
Eccentric anomaly
25.23698°
Mean motion
3.59721 °/min
Orbital period
100.08 mins
BSTAR
0.00011005
Loading maneuver chart data...
Computing Atmospheric mass density...

Documentation

Showing up to 5 results
|